Flag for Canada Weather past 2 weeks in Moose Jaw, Saskatchewan, Canada

Now
57 °F

Heavy rain. Fog.


Feels Like: 52 °F
Forecast: 54 / 58 °F
Wind: 32 mph from Northwest

Location: Moose Jaw

Current Time: Jul 28, 2015 at 1:52:50 PM

Latest Report: Jul 28, 2015 at 1:00 PM


Visibility: 1 mi

Pressure: 29.43 "Hg (27.53 "Hg at 560m altitude)

Humidity: 94%

Dew point: 55 °F

Location of Moose JawLocation

Historic Weather in Moose Jaw — Graph

°F

Moose Jaw temperature yesterday

Maximum temperature yesterday: 66 °F (at 3:00 PM)
Minimum temperature yesterday: 59 °F (at 11:00 AM)
Average temperature yesterday: 63 °F

Past Weeks' High & Low Weather Summary

 TemperatureHumidityPressure
High90 °F (Jul 22, 2:00 PM)100% (Jul 14, 5:00 AM)30.08 "Hg (Jul 14, 5:00 AM)
Low52 °F (Jul 17, 5:00 AM)27% (Jul 16, 4:00 PM)29.36 "Hg (Jul 28, 8:00 AM)
Average70 °F65%29.79 "Hg
* Reported Jul 13 12:00 Noon — Jul 28 12:00 Noon, Moose Jaw, Weather by CustomWeather, © 2015

Note: Actual official high and low records may vary slightly from our data, if they occured in-between our weather recording intervals... More about our weather records

Advertising

Moose Jaw weather history for previous 24 hours

 ConditionsComfort  
Time TempWeatherWind HumidityBarometerVisibility
12:00 PM
Tue, Jul 28
57 °FRain. Fog.29 mph94%29.40 "Hg2 mi
11:46 AM57 °FRain. Fog.37 mph94%29.39 "Hg2 mi
11:00 AM55 °FLight rain. Fog.30 mph100%29.38 "Hg3 mi
10:00 AM55 °FLight rain. Fog.29 mph100%29.37 "Hg4 mi
9:00 AM55 °FRain. Fog.31 mph100%29.36 "Hg2 mi
8:53 AM55 °FRain. Fog.29 mph100%29.36 "Hg2 mi
8:00 AM57 °FLight rain. Fog.29 mph100%29.36 "Hg3 mi
7:00 AM57 °FLight rain. Fog.18 mph100%29.37 "Hg6 mi
6:00 AM57 °FLight rain. Fog.15 mph100%29.38 "Hg4 mi
5:00 AM59 °FRain. Fog.12 mph100%29.40 "Hg2 mi
4:00 AM59 °FLight rain. Fog.8 mph100%29.44 "Hg2 mi
5:00 PM
Mon, Jul 27
66 °FMostly cloudy.14 mph68%29.78 "Hg15 mi
4:00 PM66 °FMostly cloudy.12 mph73%29.80 "Hg15 mi
3:00 PM66 °FMostly cloudy.14 mph68%29.80 "Hg15 mi
2:00 PM64 °FPartly sunny.13 mph88%29.80 "Hg15 mi
1:00 PM64 °FPartly sunny.15 mph88%29.82 "Hg15 mi
Weather by CustomWeather, © 2015

See weather overviewHow to use our weather pages